MOLNIYA 3-41 (21706 NORAD) Tracking and Keplerian Element Data

This shows tracking and keplerian element data for the satellite.

Feedback or suggestion? Click here.




ElementValue
Catalog21706
NameMOLNIYA 3-41
Epoch Orbit24651
Epoch Day33.97359619
Epoch Year2025
RAAN41.4224
Inclination63.6884
Eccentricity0.7348964
Argument of Perigee250.9064
Mean Anonmoly22.129
Mean Motion2.04370022
Decay Rate-1.437E-05
L11 21706U 91065A 25033.97359619 -.00001437 00000+0 22450-3 0 9990
L22 21706 63.6884 41.4224 7348964 250.9064 22.1290 2.04370022246511



Live tracking and technical data element details for MOLNIYA 3-41 (NORAD 21706). MOLNIYA 3-41 can be tracked NOW for your location showing map with azimuth and elevation plus other details from your city location.







IsCatalogInMostPopularTable: catalog: 21706, numindb: 368
Update: records affected: 1



GetName: 21706 MOLNIYA 3-41

Hit Count: updated at: Fri, 16 May 2025 11:00:42 GMT